K9JDN Weather Reports


time (UTC)temp
F
wind
direction
speed
knots
gust
knots
rain 1hr
in
rain 24hr
in
rain mn
in
humidity
%
barometer
mb
20260906131606 72 96 0.0 0.9 0.00 0.00 0.00 93 1019.0
20260906130119 71 0 0.0 0.9 0.00 0.00 0.00 93 1018.8
20260906124602 71 0 0.0 1.7 0.00 0.00 0.00 94 1018.6
20260906123104 71 0 0.0 0.0 0.00 0.00 0.00 95 1018.5
20260906121607 70 0 0.0 0.0 0.00 0.00 0.00 95 1018.6
20260906120104 70 0 0.0 0.0 0.00 0.00 0.00 94 1018.4
20260906114621 70 0 0.0 0.0 0.00 0.00 0.00 94 1018.3
20260906113104 70 0 0.0 0.0 0.00 0.00 0.00 94 1018.1
20260906111618 70 0 0.0 0.0 0.00 0.00 0.00 93 1017.7
20260906110117 71 0 0.0 0.0 0.00 0.00 0.00 93 1017.5
20260906104605 71 0 0.0 0.0 0.00 0.00 0.00 92 1017.5
20260906103111 71 0 0.0 0.0 0.00 0.00 0.00 92 1017.5
20260906101604 72 0 0.0 0.0 0.00 0.00 0.00 91 1017.3
20260906094605 73 0 0.0 0.0 0.00 0.00 0.00 91 1017.3
20260906093107 73 0 0.0 0.0 0.00 0.00 0.00 91 1017.1
20260906091605 73 0 0.0 0.0 0.00 0.00 0.00 90 1017.0
20260906090104 74 0 0.0 0.0 0.00 0.00 0.00 89 1016.9
20260906084608 74 0 0.0 0.0 0.00 0.00 0.00 89 1017.2
20260906083106 75 0 0.0 0.0 0.00 0.00 0.00 89 1017.0
20260906081603 75 0 0.0 1.7 0.00 0.00 0.00 89 1017.0
20260906080107 76 0 0.0 0.9 0.00 0.00 0.00 89 1016.8
20260906074603 76 0 0.0 0.9 0.00 0.00 0.00 88 1016.8
20260906073106 77 85 0.0 0.9 0.00 0.00 0.00 88 1016.9
20260906071602 77 0 0.0 1.7 0.00 0.00 0.00 86 1017.0
20260906070104 78 0 0.0 0.0 0.00 0.00 0.00 87 1016.9
20260906064606 78 0 0.0 0.0 0.00 0.00 0.00 87 1017.0
20260906063104 79 0 0.0 0.9 0.00 0.00 0.00 87 1017.0
20260906061607 79 81 0.9 1.7 0.00 0.00 0.00 86 1016.7
20260906060106 80 0 0.0 1.7 0.00 0.00 0.00 85 1016.8
20260906054608 80 82 0.0 3.5 0.00 0.00 0.00 85 1016.8
20260906053105 81 84 0.9 3.5 0.00 0.00 0.00 85 1016.8
20260906051613 81 0 0.0 0.9 0.00 0.00 0.00 84 1016.6
20260906050105 82 0 0.9 2.6 0.00 0.00 0.00 83 1016.4
20260906044610 82 79 0.9 1.7 0.00 0.00 0.00 82 1016.2
20260906043104 83 0 0.0 1.7 0.00 0.00 0.00 81 1016.2
20260906041605 83 78 0.0 1.7 0.00 0.00 0.00 80 1016.1
20260906040139 84 78 0.0 1.7 0.00 0.00 0.00 79 1016.0
20260906034620 84 67 0.0 1.7 0.00 0.00 0.00 78 1016.0
20260906033108 84 86 0.0 1.7 0.00 0.00 0.00 77 1015.9
20260906031605 85 0 0.0 0.0 0.00 0.00 0.00 76 1015.8
20260906030108 85 0 0.0 0.9 0.00 0.00 0.00 75 1015.6
20260906024615 85 79 0.9 1.7 0.00 0.00 0.00 75 1015.6
20260906023106 86 82 0.9 0.9 0.00 0.00 0.00 74 1015.4
20260906021607 86 86 0.0 0.0 0.00 0.00 0.00 73 1015.2
20260906020106 87 91 0.0 1.7 0.00 0.00 0.00 72 1015.1
20260906014603 87 77 0.0 0.9 0.00 0.00 0.00 70 1014.8
20260906013122 87 0 0.0 0.0 0.00 0.00 0.00 69 1014.7
20260906011608 86 0 0.0 0.0 0.00 0.00 0.00 69 1014.5
20260906010106 85 0 0.0 0.0 0.00 0.00 0.00 72 1014.5
20260906004607 86 0 0.0 0.0 0.00 0.00 0.00 72 1014.3
20260906003102 86 0 0.0 0.0 0.00 0.00 0.00 72 1014.4
20260906001610 87 0 0.0 0.0 0.00 0.00 0.00 71 1014.4
20260906000108 87 0 0.0 0.0 0.00 0.00 0.00 69 1014.4
20260905234603 88 0 0.0 0.0 0.00 0.00 0.00 70 1014.3
20260905233107 87 0 0.0 0.0 0.00 0.00 0.00 64 1014.3
20260905231608 87 0 0.0 1.7 0.00 0.00 0.00 71 1014.4
20260905230109 86 105 0.0 0.9 0.00 0.00 0.00 72 1014.3
20260905224619 86 117 0.0 0.9 0.00 0.00 0.00 68 1014.5
20260905223118 84 0 0.0 0.0 0.00 0.00 0.00 65 1014.4
20260905221606 85 323 0.9 4.3 0.00 0.00 0.00 75 1014.3
20260905220103 86 0 0.0 3.5 0.00 0.00 0.00 64 1014.5
20260905214604 96 18 0.0 1.7 0.00 0.00 0.00 59 1014.4
20260905213107 103 0 0.0 0.0 0.00 0.00 0.00 42 1014.2
20260905211604 99 0 0.9 3.5 0.00 0.00 0.00 53 1014.3
20260905210107 101 37 0.9 3.5 0.00 0.00 0.00 47 1014.4
20260905204606 99 333 0.9 4.3 0.00 0.00 0.00 53 1014.4
20260905203105 99 283 0.9 3.5 0.00 0.00 0.00 48 1014.5
20260905201610 98 316 0.0 3.5 0.00 0.00 0.00 47 1014.6
20260905200109 99 0 0.0 1.7 0.00 0.00 0.00 51 1014.7
20260905194608 101 286 0.9 2.6 0.00 0.00 0.00 47 1014.8
20260905193104 102 0 0.0 1.7 0.00 0.00 0.00 44 1015.0
20260905191609 100 0 0.0 3.5 0.00 0.00 0.00 53 1015.2
20260905190105 100 286 0.0 3.5 0.00 0.00 0.00 47 1015.3
20260905184609 101 240 0.0 2.6 0.00 0.00 0.00 50 1015.4
20260905183109 101 245 0.0 1.7 0.00 0.00 0.00 54 1015.7
20260905181604 100 248 0.0 0.9 0.00 0.00 0.00 56 1015.9
20260905180106 100 256 0.0 1.7 0.00 0.00 0.00 57 1016.0
20260905174603 99 0 0.0 0.9 0.00 0.00 0.00 58 1016.1
20260905173131 96 0 0.0 2.6 0.00 0.00 0.00 54 1016.1
20260905171604 97 262 0.0 1.7 0.00 0.00 0.00 56 1016.3
20260905170127 96 248 0.0 1.7 0.00 0.00 0.00 60 1016.5
20260905164609 96 58 0.9 1.7 0.00 0.00 0.00 55 1016.7
20260905163122 93 342 0.9 2.6 0.00 0.00 0.00 65 1016.9
20260905161615 93 268 0.0 1.7 0.00 0.00 0.00 65 1017.0
20260905160101 92 304 0.9 1.7 0.00 0.00 0.00 66 1017.0
20260905154616 92 252 0.0 1.7 0.00 0.00 0.00 66 1017.1
20260905153102 90 0 0.0 1.7 0.00 0.00 0.00 69 1017.1
20260905151603 88 267 0.0 2.6 0.00 0.00 0.00 71 1017.1
20260905150109 87 275 0.9 2.6 0.00 0.00 0.00 66 1017.1
20260905144605 87 276 0.9 3.5 0.00 0.00 0.00 73 1016.8
20260905143110 86 341 0.9 2.6 0.00 0.00 0.00 67 1016.8
20260905141606 86 302 0.0 1.7 0.00 0.00 0.00 74 1016.9
20260905140105 85 265 0.0 0.9 0.00 0.00 0.00 69 1016.9
20260905134605 84 283 0.0 2.6 0.00 0.00 0.00 78 1016.9
20260905133106 83 281 0.0 0.9 0.00 0.00 0.00 78 1016.8